{"data":{"norad_id":58120,"epoch":"2026-09-20T22:45:46.779840Z","epoch_age_seconds":101733,"freshness":"FRESH","line1":"1 58120U 23162C   26263.94845810 -.00000362  00000+0 -36505-5 0  9994","line2":"2 58120  43.0017 109.4188 0001065 273.1951  86.8779 15.27576750162171","mean_motion":15.2757675,"eccentricity":0.0001065,"inclination_deg":43.0017,"raan_deg":109.4188,"arg_perigee_deg":273.1951,"mean_anomaly_deg":86.8779,"bstar":-3.6505e-6,"rev_number":16217,"period_min":94.266949271125,"perigee_km":482.32811037044,"apogee_km":483.78954508174,"semimajor_km":6861.1958277261,"source":"CELESTRAK","updated_at":"2026-09-21T09:00:33.790904Z"}}